This demonstration page uses our WeatherBlox Daily Observations layout. Learn more.

Left ArrowRight Arrow

36.17497, -115.13722

Hourly Observations for March 4, 2016

Temp ( °F °C ) Dew Point ( °F °C ) Humidity (%) Winds ( mph kmh ) Pressure ( in mb ) Visibility ( mi km ) Precip ( " mm )
12:53 am 00:53 Clear 61 16.1 22 -5.6 22 22 NW 6 9 29.96 1015 10 16.0934 0 0
1:53 am 01:53 Clear 59 15 21 -6.1 23 23 NW 3 6 29.96 1015 10 16.0934 0 0
2:53 am 02:53 Clear 58 14.4 21 -6.1 24 24 N 7 11 29.95 1014 10 16.0934 0 0
3:53 am 03:53 Clear 59 15 20 -6.7 22 22 NNW 9 15 29.95 1014 10 16.0934 0 0
4:53 am 04:53 Clear 57 13.9 22 -5.6 26 26 NW 5 7 29.96 1015 10 16.0934 0 0
5:53 am 05:53 Clear 55 12.8 21 -6.1 26 26 WNW 6 9 29.97 1015 10 16.0934 0 0
6:53 am 06:53 Sunny 55 12.8 20 -6.7 25 25 NNW 5 7 29.99 1016 10 16.0934 0 0
7:53 am 07:53 Sunny 62 16.7 21 -6.1 21 21 Calm 30.01 1016 10 16.0934 0 0
8:53 am 08:53 Sunny 67 19.4 21 -6.1 17 17 Calm 30.01 1016 10 16.0934 0 0
9:53 am 09:53 Sunny 69 20.6 21 -6.1 16 16 ESE 6 9 30.01 1016 10 16.0934 0 0
10:53 am 10:53 Sunny 72 22.2 20 -6.7 14 14 SE 3 6 30.01 1016 10 16.0934 0 0
11:53 am 11:53 Sunny 74 23.3 16 -8.9 11 11 ESE 6 9 29.98 1015 10 16.0934 0 0
12:53 pm 12:53 Sunny 75 23.9 16 -8.9 10 10 Calm 29.96 1014 10 16.0934 0 0
1:53 pm 13:53 Sunny 76 24.4 16 -8.9 10 10 ESE 7 11 29.92 1013 10 16.0934 0 0
2:53 pm 14:53 Sunny 77 25 18 -7.8 11 11 ESE 5 7 29.91 1013 10 16.0934 0 0
3:53 pm 15:53 Sunny 77 25 18 -7.8 11 11 E 10 17 29.88 1012 10 16.0934 0 0
4:53 pm 16:53 Sunny 77 25 19 -7.2 11 11 E 8 13 29.88 1012 10 16.0934 0 0
5:53 pm 17:53 Clear 74 23.3 19 -7.2 12 12 E 7 11 29.88 1012 10 16.0934 0 0
6:53 pm 18:53 Clear 73 22.8 20 -6.7 13 13 Calm 29.89 1012 10 16.0934 0 0
7:53 pm 19:53 Clear 71 21.7 21 -6.1 15 15 Calm 29.89 1012 10 16.0934 0 0
8:53 pm 20:53 Clear 67 19.4 25 -3.9 20 20 WNW 3 6 29.9 1012 10 16.0934 0 0
9:53 pm 21:53 Clear 69 20.6 23 -5 17 17 SSW 6 9 29.89 1012 10 16.0934 0 0
10:53 pm 22:53 Clear 66 18.9 22 -5.6 19 19 SSE 5 7 29.88 1012 10 16.0934 0 0
11:53 pm 23:53 Clear 66 18.9 22 -5.6 19 19 VRB 3 6 29.88 1012 10 16.0934 0 0

Powered by AerisWeather